Lapse_Rate
6.7 6.1 6.5 6.2 6.4 6.1 6.2 6.2 6.1 6.0 6.1 6.0 6.1 5.9 5.5 5.9 6.0 6.1 6.1 6.0 6.0 5.9 5.9 5.8 5.9 6.0 5.9 5.9 6.1 6.1 6.0 6.1 5.9 6.1 6.1 5.9 5.9 6.0 5.9 5.4 5.5 5.7 5.7
6.3 5.9 6.1 6.0 6.2 6.0 5.9 5.7 6.2 6.1 6.1 5.9 5.7 6.0 6.2 5.7 5.8 6.0 5.9 6.1 6.2 6.1 6.0 5.8 5.8 5.7 5.3 5.8 5.9 6.0 6.1 6.1 6.0 5.9 6.1 5.9 6.0 5.9 6.0 5.8 5.5 5.7 6.1
6.1 6.3 6.3 5.6 5.8 5.6 6.0 5.9 5.9 5.7 6.0 6.0 6.1 5.7 5.8 6.1 6.1 5.8 6.0 5.8 6.0 6.0 6.0 6.0 5.8 5.7 5.5 5.6 5.8 5.9 6.1 6.0 6.2 5.9 5.8 6.0 5.9 5.9 5.9 5.8 5.7 5.5 5.9
5.7 6.1 5.6 5.4 5.4 5.8 5.6 5.9 5.7 5.6 5.8 5.7 6.0 5.8 5.9 5.9 6.0 6.2 6.3 6.3 6.3 6.2 6.2 6.2 6.0 5.8 5.6 5.4 5.7 5.8 6.0 6.1 6.1 5.9 5.8 5.8 5.8 5.4 5.5 5.7 5.8 5.7 5.9
5.7 5.3 5.3 5.3 5.4 5.4 5.4 5.6 5.7 5.7 5.6 5.6 5.6 5.6 5.6 5.8 6.1 6.1 6.1 6.3 6.3 6.5 6.5 6.3 6.3 6.2 5.9 5.7 5.7 5.8 5.8 6.0 5.9 6.0 5.8 5.7 5.7 5.5 5.5 5.5 5.8 5.9 5.9
5.7 5.6 5.5 5.5 5.4 5.5 5.5 5.7 5.7 5.6 5.6 5.5 5.5 5.4 5.5 5.5 5.6 5.9 6.0 6.0 6.0 6.2 6.4 6.4 6.3 6.2 6.1 6.1 6.2 6.0 5.9 5.9 5.9 5.8 5.8 5.8 5.7 5.5 5.6 5.4 5.6 5.8 5.9
5.4 5.5 5.7 5.6 5.8 5.8 5.7 5.8 5.9 5.9 5.9 5.6 5.5 5.4 5.5 5.4 5.5 5.7 5.8 5.8 5.9 5.9 6.0 6.1 6.1 6.1 6.0 5.9 6.1 6.1 6.0 6.0 6.2 5.8 5.8 5.9 6.0 5.8 5.7 5.6 5.7 5.8 5.9
5.3 5.4 5.4 5.5 5.6 5.7 5.8 5.9 6.0 5.9 6.0 5.9 5.6 5.5 5.5 5.5 5.5 5.4 5.5 5.8 5.6 5.6 5.9 5.7 5.9 6.1 6.1 5.9 5.8 5.9 6.1 6.1 6.2 6.1 5.8 5.9 5.9 5.9 5.7 5.5 5.8 6.0 5.9
5.1 5.1 5.2 5.3 5.4 5.5 5.8 6.0 6.0 6.0 6.0 6.0 6.0 5.8 5.7 5.6 5.5 5.6 5.5 5.4 5.5 5.7 5.6 5.7 5.8 5.9 6.1 6.1 6.0 5.9 6.0 6.3 6.2 6.1 6.0 6.0 6.0 6.0 5.9 5.5 5.4 5.8 5.9
5.3 5.1 5.0 5.0 5.0 5.2 5.4 5.5 5.7 6.1 6.2 6.2 6.1 5.9 5.9 5.9 5.8 5.6 5.6 5.7 5.5 5.4 5.5 5.6 5.6 5.8 5.9 5.7 5.9 5.8 5.8 6.2 6.4 6.2 6.1 6.0 6.2 6.0 5.8 5.8 5.5 5.4 5.6
5.4 5.5 5.6 5.5 5.3 5.2 5.2 5.4 5.6 5.7 5.9 6.1 6.1 6.1 6.0 5.9 6.0 6.1 5.9 5.7 5.7 5.5 5.5 5.5 5.5 5.6 5.7 5.8 5.9 5.8 6.0 6.0 6.3 6.3 6.1 6.0 6.1 6.3 6.0 5.8 5.8 5.5 5.5
5.0 4.9 5.0 5.1 5.2 5.2 5.3 5.3 5.3 5.5 5.8 5.9 6.0 6.1 6.0 5.9 5.8 6.0 6.0 6.0 5.9 5.9 5.7 5.5 5.6 5.6 5.5 5.6 5.8 5.8 5.9 5.9 6.1 6.3 6.1 6.0 5.9 6.2 6.2 5.9 5.7 5.5 5.5
4.6 4.6 4.7 4.8 4.9 5.1 5.3 5.4 5.4 5.5 5.5 5.6 5.9 6.0 6.2 6.2 6.0 5.8 5.9 6.0 6.0 6.1 6.1 5.9 5.7 5.7 5.6 5.6 5.6 5.7 5.7 6.0 5.9 6.2 6.2 6.0 5.8 6.0 6.1 6.1 5.8 5.5 5.3
5.0 5.0 5.1 5.2 5.2 5.2 5.1 5.0 5.1 5.1 5.2 5.3 5.5 5.8 6.0 6.2 6.4 6.3 6.0 5.8 5.9 6.1 6.1 6.3 6.0 5.8 5.8 5.7 5.6 5.6 5.6 5.7 6.0 5.8 6.2 5.9 5.8 5.7 6.0 6.1 5.8 5.5 5.3
5.0 5.1 5.1 5.1 5.1 5.1 4.9 4.9 5.0 5.0 5.0 4.9 4.9 5.2 5.6 5.8 6.0 6.2 6.4 6.2 5.9 5.7 5.9 6.0 6.1 6.2 6.0 5.7 5.7 5.7 5.6 5.7 5.8 6.1 6.0 6.0 6.0 5.7 5.7 6.2 5.9 5.5 5.4
4.6 4.6 4.7 4.8 5.0 5.2 5.1 5.1 5.1 5.4 5.6 5.8 5.8 5.8 5.6 5.4 5.6 5.9 6.0 6.1 6.2 5.9 5.5 5.7 5.9 6.0 6.2 6.1 5.8 5.7 5.4 5.5 5.7 5.8 6.1 6.0 5.8 6.0 5.7 5.9 6.1 5.8 5.4
4.3 4.4 4.4 4.6 4.8 4.8 4.9 5.3 5.6 5.5 5.6 5.7 5.9 6.1 6.3 6.2 5.9 5.7 5.6 6.0 6.1 6.1 5.9 5.6 5.3 5.7 5.9 6.0 6.1 5.8 5.7 5.4 5.4 5.7 5.8 6.0 5.9 5.9 5.9 5.7 6.1 6.0 5.5
4.0 4.1 4.2 4.0 3.8 3.7 3.5 3.2 2.9 3.0 3.4 3.9 4.3 5.0 5.5 5.7 6.0 6.0 5.7 5.3 5.5 6.0 6.2 5.8 5.5 5.2 5.4 5.8 5.9 6.0 5.8 5.9 5.6 5.4 5.7 5.9 5.9 5.9 6.1 5.9 5.8 6.1 5.8
3.8 3.8 3.6 3.4 3.2 3.0 2.7 2.5 2.2 1.9 1.7 1.3 1.4 1.9 2.3 3.2 4.5 5.4 5.6 5.3 4.9 4.7 5.1 5.9 5.8 5.4 5.1 5.3 5.6 5.9 6.0 5.8 6.0 5.6 5.5 5.7 5.8 5.9 5.9 6.1 5.8 5.8 6.0
3.6 3.4 3.2 3.0 3.0 3.0 2.8 2.5 2.2 2.1 2.1 2.0 2.0 1.9 1.9 2.1 2.5 3.2 3.8 4.2 4.2 3.8 3.6 4.3 5.1 5.2 5.2 4.9 5.2 5.5 5.8 5.9 5.9 6.0 5.8 5.7 5.7 5.7 5.9 5.7 6.0 5.8 5.7
3.0 2.8 3.0 3.2 3.1 2.9 2.6 2.6 2.7 2.6 2.5 2.4 2.5 2.5 2.5 2.5 2.5 2.7 3.1 3.4 3.4 3.4 3.3 3.2 3.7 4.4 4.5 4.6 4.7 5.1 5.5 5.8 5.8 5.9 6.0 6.1 5.9 5.7 5.7 5.8 5.7 5.9 5.8
2.7 2.7 3.0 2.9 2.8 2.5 2.3 2.1 2.2 2.1 2.0 2.0 2.1 2.2 2.3 2.4 2.5 2.7 2.9 3.2 3.3 3.4 3.1 3.0 3.0 3.3 3.8 3.8 4.0 4.3 5.1 5.4 5.4 5.6 5.7 5.6 6.0 6.2 5.7 5.7 5.8 5.7 5.5
2.7 2.9 2.8 2.7 2.3 2.1 1.9 1.9 1.8 1.8 1.9 2.0 2.1 2.3 2.5 2.7 2.9 3.1 3.3 3.6 3.9 3.8 3.4 2.9 2.8 2.9 3.3 3.2 3.2 3.4 3.8 4.7 5.3 5.3 5.5 5.5 5.8 6.1 5.7 5.7 5.8 5.7 5.4
2.7 2.5 2.5 2.1 2.0 1.7 1.7 1.7 1.6 1.7 2.0 2.3 2.6 3.0 3.4 4.0 4.7 5.1 5.2 5.4 5.6 5.8 5.6 4.7 3.7 2.9 2.8 3.0 2.9 2.7 3.0 3.5 4.5 5.2 5.2 5.4 5.6 5.6 5.7 5.6 5.7 5.7 5.3
2.3 2.2 2.0 1.8 1.6 1.7 1.7 1.7 1.8 2.1 2.2 2.9 3.7 4.6 5.3 5.7 5.6 5.5 5.5 5.6 5.6 5.7 5.8 5.8 5.1 4.4 3.3 2.7 2.8 2.8 2.5 2.7 3.2 4.2 4.9 5.0 5.2 5.4 5.8 5.4 5.6 5.5 5.4
1.9 2.0 1.7 1.6 1.7 1.8 1.8 1.9 2.1 2.6 3.3 4.5 5.1 5.5 5.5 5.4 5.3 5.2 5.2 5.2 5.2 5.2 5.3 5.4 5.6 5.1 4.3 3.3 2.7 2.6 2.8 2.4 2.5 3.3 4.1 4.6 4.9 5.5 5.9 5.6 5.2 5.4 5.5
Wind_Speed
19 27 32 35 34 35 35 36 34 34 35 35 35 35 21 16 13 13 9 5 2 3 3 4 6 10 12 10 10 11 11 11 8 7 9 12 11 10 10 11 10 13 14
22 26 30 33 32 34 34 34 34 34 35 34 36 35 36 27 18 16 14 12 10 8 7 7 5 5 8 9 10 10 11 10 9 7 9 11 11 11 11 10 9 13 13
20 23 28 30 30 33 34 34 35 34 34 34 34 35 34 33 35 28 20 15 13 11 10 8 8 5 6 6 7 10 8 9 10 8 7 8 10 12 11 12 10 12 12
18 19 24 28 28 30 32 32 34 34 34 34 33 33 33 33 33 32 31 27 19 16 13 10 8 6 2 6 5 7 8 8 9 10 8 8 9 12 14 13 13 12 11
18 19 21 25 26 29 30 30 32 32 33 34 34 33 32 32 32 31 30 31 30 27 21 14 10 7 3 5 5 6 8 9 9 10 7 8 8 10 16 15 13 11 11
16 19 22 27 26 28 29 30 32 32 33 34 34 33 32 32 32 31 31 32 31 29 26 24 14 8 5 4 6 8 8 8 10 8 8 8 9 10 16 17 14 13 12
15 17 18 25 27 28 30 31 31 32 32 32 32 31 30 30 30 30 29 31 31 29 29 27 24 15 8 8 10 10 10 11 10 9 8 9 10 11 14 17 16 14 14
15 19 21 22 26 25 28 30 30 31 31 31 31 31 29 30 29 29 29 30 29 29 28 27 27 25 17 10 11 11 11 14 12 10 10 8 9 11 17 20 18 15 14
15 17 20 23 26 23 26 29 29 30 31 30 31 31 29 29 29 29 29 29 30 28 28 27 27 26 26 22 14 13 12 16 14 12 12 9 8 9 11 21 19 17 16
16 18 19 21 21 21 22 27 27 27 29 30 30 31 29 27 28 29 28 30 30 28 27 27 28 27 25 24 21 16 15 14 15 13 13 12 12 9 10 15 18 18 17
12 17 18 21 23 23 21 23 24 25 28 26 28 30 25 24 25 26 26 28 28 28 27 27 26 27 25 20 22 25 18 14 15 15 15 16 17 16 13 14 19 19 18
13 13 17 18 19 20 20 22 22 21 22 22 24 25 22 22 23 23 22 26 26 27 26 28 26 24 20 18 17 20 16 15 15 15 16 17 20 20 19 18 21 20 20
9 9 16 16 18 19 18 18 18 19 20 19 23 23 21 19 21 20 20 21 22 23 22 24 23 18 20 18 16 15 17 19 15 16 18 19 22 24 22 19 23 23 22
10 11 14 15 17 17 16 16 16 15 17 18 21 22 20 17 19 19 18 21 20 19 21 21 19 22 20 19 17 18 17 16 16 16 18 22 23 26 25 20 25 26 25
9 9 11 13 15 16 16 16 16 17 17 18 17 18 19 18 17 17 18 18 19 19 19 19 19 19 20 20 18 16 17 18 18 17 16 21 25 25 26 22 25 28 28
10 12 14 16 18 18 17 18 16 15 16 16 17 19 18 17 16 16 17 16 16 18 20 19 17 16 15 19 15 16 16 17 20 21 17 19 25 26 27 25 24 27 29
7 7 9 11 12 12 12 12 11 10 11 12 15 17 16 17 18 17 15 15 17 18 19 19 17 16 13 16 15 16 15 16 16 17 21 20 20 26 27 28 26 25 28
5 6 7 10 12 13 14 15 14 14 14 12 12 12 14 16 17 17 15 14 17 18 16 14 10 11 11 11 12 12 10 13 15 18 20 20 19 18 23 29 28 24 29
6 8 9 11 12 15 17 18 18 18 17 18 17 15 14 14 16 16 16 16 17 15 14 11 10 10 11 11 12 13 13 12 13 13 13 18 21 20 18 24 28 26 27
5 6 8 9 11 13 14 13 14 15 15 16 16 17 18 15 15 15 15 15 17 13 9 10 11 10 10 11 13 14 13 12 11 11 13 13 20 22 21 21 22 24 29
4 7 7 8 9 9 7 7 8 8 9 14 16 18 17 17 17 16 13 14 14 9 11 11 10 12 10 10 10 8 12 14 16 13 11 12 17 16 21 20 19 19 22
7 7 8 7 8 8 7 7 7 8 9 15 18 17 18 18 19 18 16 13 13 9 11 11 10 10 9 6 6 9 7 6 4 10 12 13 16 12 14 18 20 21 21
6 7 7 8 9 9 11 10 10 10 10 8 9 11 17 19 20 20 19 16 13 11 8 10 10 10 9 9 8 4 4 4 10 5 7 13 15 11 12 12 13 18 21
7 7 8 7 10 10 12 9 11 9 10 9 10 11 17 19 19 19 19 18 16 13 9 9 8 9 9 10 8 5 7 8 4 7 5 6 8 14 14 12 13 15 21
7 8 7 8 10 10 10 10 9 11 9 9 9 13 13 18 18 18 18 18 16 13 11 11 11 10 8 9 8 8 9 8 9 6 9 9 10 8 11 13 14 14 21
8 8 7 9 10 11 11 11 12 13 13 11 12 11 10 10 13 17 18 17 18 16 12 11 11 12 10 10 10 9 9 7 7 5 6 10 13 9 9 12 13 13 14
Wind_Direction
347 345 351 355 1 7 12 16 17 19 24 26 24 21 12 8 8 3 355 354 336 315 278 218 191 180 167 164 164 144 146 140 142 141 138 131 131 124 120 120 121 121 120
347 347 351 0 4 9 13 16 18 21 23 23 23 20 19 18 8 7 5 359 354 341 330 304 277 213 200 169 161 156 154 143 138 146 145 142 138 139 137 135 132 129 127
354 351 344 5 8 12 16 16 19 20 23 24 22 21 16 18 25 22 9 356 350 352 345 337 318 291 234 181 171 164 157 154 148 158 153 163 161 157 151 146 143 140 135
357 359 354 7 13 17 19 17 21 21 22 23 23 21 17 16 20 20 21 20 9 357 350 350 346 338 355 315 190 185 160 169 160 158 181 178 176 175 163 160 154 153 144
4 4 360 13 18 20 22 21 23 23 23 22 21 20 20 15 15 17 16 14 13 10 3 345 339 338 333 196 213 199 185 174 174 168 191 197 195 197 175 170 158 161 157
7 9 7 14 19 22 23 23 24 24 24 24 20 18 19 16 14 14 12 10 8 7 4 0 329 318 287 241 220 218 213 193 184 192 199 212 221 213 199 177 162 165 169
14 15 13 16 18 20 21 23 24 23 23 23 21 19 17 16 15 13 12 8 4 2 1 358 355 327 292 259 239 240 226 206 198 205 211 215 223 224 218 181 172 173 172
16 14 16 15 18 21 21 22 21 22 21 21 18 17 16 15 14 13 10 6 3 360 358 356 355 348 338 290 263 243 223 201 204 215 215 218 219 228 240 185 176 178 179
25 21 18 15 12 14 20 20 19 20 19 18 15 14 13 12 10 10 8 5 0 358 356 355 352 348 345 341 289 259 238 210 208 218 220 218 220 235 204 189 178 181 183
25 22 18 18 16 14 14 13 17 19 18 15 14 12 8 9 8 7 4 1 358 355 354 355 350 346 342 335 331 275 252 237 214 218 226 221 217 231 231 200 183 186 188
24 22 17 15 13 13 15 10 12 12 13 14 10 7 7 6 2 1 359 357 355 353 351 351 348 348 343 342 338 335 273 242 231 225 228 226 221 221 235 221 197 193 193
18 13 15 16 15 14 13 11 11 10 11 11 8 6 5 1 358 356 354 354 354 352 350 348 346 346 348 341 335 331 314 251 234 232 232 228 224 227 225 230 207 197 196
8 14 12 11 11 13 13 10 10 9 8 6 6 5 360 359 356 355 353 353 351 350 350 345 341 344 337 334 329 318 311 306 247 234 234 228 228 227 225 230 209 202 200
15 12 9 11 13 13 11 11 8 8 7 4 1 3 0 357 355 353 352 347 349 348 343 342 337 331 329 325 321 314 308 302 283 244 238 227 228 230 227 228 212 204 200
20 11 8 7 11 8 7 4 4 3 3 360 1 2 1 356 353 347 346 343 343 342 342 337 332 330 326 322 317 310 306 301 295 264 247 234 226 229 228 224 213 211 207
13 9 2 4 5 3 1 357 354 354 353 355 355 355 357 356 350 345 342 339 340 339 335 332 328 327 324 318 311 306 297 294 290 293 248 245 229 226 226 220 220 215 210
9 352 353 351 349 346 337 333 329 330 339 342 347 349 348 352 348 345 340 335 336 334 331 332 327 326 321 318 309 306 297 289 289 280 265 238 238 229 222 221 219 218 210
352 348 340 345 347 351 350 349 344 340 335 333 331 334 338 342 345 340 337 333 332 330 329 330 331 324 321 314 309 305 296 285 279 275 279 242 232 231 221 221 216 215 211
345 346 348 352 353 350 346 344 340 338 338 337 335 331 326 326 335 333 331 328 331 329 326 327 326 325 318 315 309 304 295 283 275 272 261 257 228 226 221 214 216 212 212
330 344 346 342 337 339 336 330 329 327 327 325 324 324 322 319 320 324 322 321 326 326 323 326 322 320 309 313 313 296 284 277 267 254 252 257 231 224 221 214 209 217 214
347 345 339 326 328 335 331 326 328 324 323 320 318 315 312 313 314 316 310 314 317 317 319 321 320 320 318 327 316 323 292 267 256 246 240 240 228 218 220 214 206 204 215
328 326 323 317 325 331 329 322 320 318 313 311 312 314 316 313 312 311 311 307 308 311 313 318 321 319 311 344 319 300 314 312 272 266 239 231 224 220 220 220 212 205 206
312 311 315 313 320 322 319 322 319 310 300 305 309 309 311 309 307 306 303 302 303 300 303 310 312 312 312 309 306 296 305 304 340 304 285 236 224 211 211 212 217 211 203
314 319 318 312 320 324 319 319 313 305 304 306 301 302 305 305 302 298 296 295 296 295 292 297 297 304 300 301 311 274 273 303 310 319 317 330 296 240 219 209 208 209 204
319 322 317 311 314 317 313 309 309 304 300 302 298 300 300 300 296 292 291 291 289 291 287 286 289 290 286 288 289 292 291 292 270 269 290 304 330 322 314 214 213 208 210
322 315 309 310 311 314 310 306 301 298 299 301 301 299 296 296 296 290 288 286 284 284 286 285 282 280 278 278 279 282 273 272 290 303 302 306 306 301 314 290 214 207 204